Torna al catalogo

COSMOS 1554

GLONASS

AttivoNavigazioneMEO
NORAD 14977·PAYLOAD·🇷🇺 Russia

Lanciato May 19, 1984 da Baikonur Cosmodrome

Loading…

Prossimi Passaggi (prossime 24 ore)

TLE

AggiornatoSource: Space-Track

Epoca: Sep 13, 2026, 05:54 UTC

1 14977U 84047A   26256.24598661 -.00000066  00000-0  00000+0 0  9995
2 14977  66.3264 325.2610 0018984 214.5082 140.3950  2.13100727105751

Traccia COSMOS 1554 in tempo reale con AllMySat

Download on the App Store